FW4369 Weather Reports


time (UTC)temp
C
wind
direction
speed
KPH
gust
KPH
rain 1hr
cm
rain 24hr
cm
rain mn
cm
humidity
%
barometer
mb
20260906201500 32 186 17.7 30.6 0.00 0.28 0.28 53 1014.0
20260906201001 32 167 24.1 27.4 0.00 0.28 0.28 53 1013.9
20260906200500 32 127 20.9 30.6 0.00 0.28 0.28 52 1014.0
20260906200003 32 163 16.1 30.6 0.00 0.28 0.28 54 1014.0
20260906195501 32 177 27.4 30.6 0.00 0.28 0.28 55 1014.1
20260906194500 32 155 22.5 33.8 0.00 0.28 0.28 53 1014.3
20260906194000 32 157 22.5 32.2 0.00 0.28 0.28 52 1014.3
20260906193501 31 163 19.3 29.0 0.00 0.28 0.28 56 1014.3
20260906193001 31 183 16.1 30.6 0.00 0.28 0.28 55 1014.2
20260906192000 31 169 29.0 29.0 0.00 0.28 0.28 57 1014.4
20260906191501 31 150 20.9 29.0 0.00 0.28 0.28 60 1014.5
20260906191000 31 138 19.3 24.1 0.00 0.28 0.28 60 1014.5
20260906190500 31 161 20.9 24.1 0.00 0.28 0.28 59 1014.5
20260906190003 30 138 17.7 24.1 0.00 0.28 0.28 62 1014.6
20260906185001 30 153 14.5 27.4 0.00 0.28 0.28 61 1014.8
20260906184500 31 164 25.7 27.4 0.00 0.28 0.28 64 1014.9
20260906184001 30 159 20.9 25.7 0.00 0.28 0.28 65 1014.9
20260906183500 30 130 14.5 25.7 0.00 0.28 0.28 65 1014.9
20260906183001 30 139 11.3 20.9 0.00 0.28 0.28 67 1014.9
20260906182501 29 153 20.9 22.5 0.00 0.28 0.28 65 1015.1
20260906182001 28 139 12.9 20.9 0.00 0.28 0.28 71 1015.1
20260906181500 27 143 19.3 22.5 0.00 0.28 0.28 71 1015.2
20260906181001 27 175 12.9 22.5 0.00 0.28 0.28 71 1015.2
20260906180500 29 138 16.1 22.5 0.00 0.28 0.28 70 1015.4
20260906180003 28 136 11.3 19.3 0.00 0.28 0.28 77 1015.4
20260906175501 26 171 11.3 19.3 0.00 0.28 0.28 75 1015.6
20260906175001 26 155 6.4 17.7 0.00 0.28 0.28 76 1015.9
20260906174500 26 152 12.9 22.5 0.00 0.28 0.28 76 1015.9
20260906173501 27 132 11.3 19.3 0.00 0.28 0.28 76 1015.9
20260906173000 26 121 6.4 14.5 0.00 0.28 0.28 81 1015.8
20260906172501 26 147 8.0 19.3 0.00 0.28 0.28 79 1015.8
20260906172001 26 142 12.9 19.3 0.00 0.28 0.28 77 1016.0
20260906171001 25 146 8.0 19.3 0.00 0.28 0.28 80 1016.2
20260906170501 25 159 9.7 17.7 0.00 0.28 0.28 81 1016.2
20260906170003 25 157 8.0 17.7 0.00 0.28 0.28 83 1016.2
20260906165501 24 147 8.0 22.5 0.00 0.28 0.28 90 1016.2
20260906165000 23 126 12.9 22.5 0.00 0.28 0.28 89 1016.3
20260906164500 22 160 14.5 20.9 0.00 0.28 0.28 90 1016.4
20260906164000 22 132 11.3 17.7 0.00 0.28 0.28 91 1016.7
20260906163001 22 156 8.0 11.3 0.00 0.28 0.28 91 1017.5
20260906162501 22 125 6.4 6.4 0.00 0.28 0.28 91 1017.8
20260906162000 22 86 1.6 4.8 0.00 0.28 0.28 91 1018.0
20260906161501 21 158 1.6 4.8 0.00 0.28 0.28 91 1018.1
20260906161000 21 158 0.0 4.8 0.08 0.28 0.28 91 1018.1
20260906160500 21 250 3.2 6.4 0.08 0.28 0.28 90 1018.2
20260906160003 21 271 0.0 9.7 0.08 0.28 0.28 90 1018.2
20260906155500 21 347 3.2 12.9 0.08 0.28 0.28 90 1018.1
20260906155000 21 340 3.2 14.5 0.08 0.28 0.28 90 1018.1
20260906154500 21 331 6.4 14.5 0.08 0.28 0.28 90 1018.0
20260906154000 21 348 6.4 16.1 0.08 0.28 0.28 90 1018.0
20260906153500 21 5 6.4 20.9 0.08 0.28 0.28 90 1018.0
20260906153000 21 325 9.7 17.7 0.08 0.28 0.28 90 1018.0
20260906152501 21 336 8.0 19.3 0.08 0.28 0.28 90 1017.9
20260906152000 21 360 9.7 19.3 0.08 0.28 0.28 90 1017.9
20260906151501 22 348 8.0 17.7 0.08 0.28 0.28 90 1018.0
20260906151000 22 355 4.8 17.7 0.00 0.20 0.20 90 1018.0
20260906150501 -17 0.0 0.0 0.00 0.20 0.20 1018.0
20260906145500 -17 0.0 0.0 0.00 0.20 0.20 1018.0
20260906144500 -17 0.0 0.0 0.00 0.20 0.20 1017.9
20260906144001 -17 0.0 0.0 0.03 0.20 0.20 1017.7
20260906143500 -17 0.0 0.0 0.03 0.20 0.20 1017.8
20260906143000 -17 0.0 0.0 0.03 0.20 0.20 1017.8
20260906142500 -17 0.0 0.0 0.03 0.20 0.20 1017.7
20260906142001 -17 0.0 0.0 0.03 0.20 0.20 1017.8
20260906141500 -17 0.0 4.8 0.03 0.20 0.20 1017.6
20260906141001 -17 0.0 9.7 0.03 0.20 0.20 1017.4
20260906140501 21 29 4.8 12.9 0.03 0.20 0.20 91 1017.3
20260906140003 21 39 1.6 16.1 0.03 0.20 0.20 91 1017.2
20260906135501 21 321 8.0 16.1 0.03 0.20 0.20 91 1017.2
20260906135000 21 355 14.5 17.7 0.03 0.20 0.20 91 1017.2
20260906134501 21 344 16.1 17.7 0.03 0.20 0.20 91 1016.8
20260906134001 21 24 6.4 14.5 0.05 0.18 0.18 91 1016.6
20260906133500 21 29 3.2 16.1 0.18 0.18 0.18 91 1016.7
20260906133001 21 360 8.0 17.7 0.18 0.18 0.18 91 1016.4
20260906132501 21 346 8.0 17.7 0.18 0.18 0.18 91 1016.6
20260906132001 21 13 11.3 16.1 0.18 0.18 0.18 91 1016.8
20260906131501 21 38 6.4 19.3 0.18 0.18 0.18 91 1017.1
20260906131000 21 28 9.7 22.5 0.18 0.18 0.18 91 1017.2
20260906130501 21 355 6.4 24.1 0.18 0.18 0.18 91 1017.4
20260906130003 21 21 19.3 24.1 0.18 0.18 0.18 91 1017.5
20260906125501 22 21 8.0 20.9 0.18 0.18 0.18 90 1017.8
20260906125000 22 355 12.9 20.9 0.18 0.18 0.18 90 1017.9
20260906124500 22 40 8.0 20.9 0.18 0.18 0.18 89 1017.9
20260906124000 22 5 8.0 20.9 0.13 0.13 0.13 89 1017.9
20260906123500 22 336 14.5 22.5 0.00 0.00 0.00 88 1018.0
20260906123001 22 360 14.5 25.7 0.00 0.00 0.00 87 1017.8
20260906122001 22 18 17.7 25.7 0.00 0.00 0.00 87 1017.7
20260906121501 22 350 12.9 25.7 0.00 0.00 0.00 86 1017.6
20260906121000 22 287 12.9 25.7 0.00 0.00 0.00 85 1017.5
20260906120501 23 29 12.9 20.9 0.00 0.00 0.00 84 1017.5
20260906120003 23 9 11.3 27.4 0.00 0.00 0.00 83 1017.4
20260906115501 23 317 16.1 27.4 0.00 0.00 0.00 82 1017.1
20260906115001 23 314 12.9 24.1 0.00 0.00 0.00 81 1017.0
20260906114501 23 355 9.7 29.0 0.00 0.00 0.00 80 1016.8
20260906113500 24 344 22.5 27.4 0.00 0.00 0.00 78 1016.8
20260906113001 24 360 17.7 30.6 0.00 0.00 0.00 76 1016.6
20260906112501 25 5 19.3 30.6 0.00 0.00 0.00 75 1016.5
20260906112001 25 336 16.1 30.6 0.00 0.00 0.00 73 1016.2
20260906111500 25 28 14.5 30.6 0.00 0.00 0.00 73 1016.4
20260906111000 25 19 25.7 32.2 0.00 0.00 0.00 73 1016.1
20260906110500 25 360 9.7 32.2 0.00 0.00 0.00 73 1016.2
20260906110003 24 349 8.0 19.3 0.00 0.00 0.00 75 1015.8
20260906105501 23 9 11.3 20.9 0.00 0.00 0.00 78 1015.5
20260906105000 22 279 11.3 27.4 0.00 0.00 0.00 81 1015.6
20260906104500 22 14 14.5 19.3 0.00 0.00 0.00 83 1015.7
20260906103500 22 90 3.2 3.2 0.00 0.00 0.00 82 1014.5
20260906103000 22 90 1.6 3.2 0.00 0.00 0.00 81 1014.3
20260906102500 22 90 0.0 4.8 0.00 0.00 0.00 80 1014.1
20260906102001 23 90 1.6 4.8 0.00 0.00 0.00 80 1014.0
20260906101501 23 90 0.0 4.8 0.00 0.00 0.00 79 1014.0
20260906100500 23 89 0.0 9.7 0.00 0.00 0.00 80 1013.9
20260906100003 23 67 1.6 9.7 0.00 0.00 0.00 80 1014.0
20260906095500 22 79 0.0 6.4 0.00 0.00 0.00 81 1013.9
20260906095000 22 109 1.6 6.4 0.00 0.00 0.00 81 1013.9
20260906094501 22 109 1.6 6.4 0.00 0.00 0.00 82 1013.8
20260906094001 22 125 1.6 8.0 0.00 0.00 0.00 82 1013.7
20260906093000 22 80 3.2 9.7 0.00 0.00 0.00 82 1013.6
20260906092500 22 99 4.8 6.4 0.00 0.00 0.00 82 1013.6
20260906092001 22 81 3.2 4.8 0.00 0.00 0.00 83 1013.6
20260906091000 22 93 1.6 4.8 0.00 0.00 0.00 83 1013.5
20260906090500 22 93 1.6 4.8 0.00 0.00 0.00 83 1013.5
20260906090003 22 94 0.0 4.8 0.00 0.00 0.00 83 1013.5
20260906085500 22 92 1.6 4.8 0.00 0.00 0.00 84 1013.5
20260906085000 22 92 1.6 4.8 0.00 0.00 0.00 84 1013.6
20260906084500 22 77 3.2 4.8 0.00 0.00 0.00 83 1013.5
20260906083500 22 73 3.2 4.8 0.00 0.00 0.00 83 1013.6
20260906083000 22 72 1.6 3.2 0.00 0.00 0.00 83 1013.7
20260906082500 22 72 0.0 3.2 0.00 0.00 0.00 83 1013.7
20260906082001 22 72 1.6 4.8 0.00 0.00 0.00 82 1013.8
20260906081500 23 72 1.6 4.8 0.00 0.00 0.00 81 1013.8
20260906080501 23 71 1.6 6.4 0.00 0.00 0.00 82 1013.9
20260906080003 22 78 3.2 6.4 0.00 0.00 0.00 82 1014.0
20260906075500 22 83 1.6 6.4 0.00 0.00 0.00 83 1014.1
20260906074500 22 124 0.0 3.2 0.00 0.00 0.00 84 1014.1
20260906074001 21 124 0.0 3.2 0.00 0.00 0.00 85 1014.1
20260906073501 21 124 1.6 1.6 0.00 0.00 0.00 86 1014.1
20260906073000 21 124 0.0 1.6 0.00 0.00 0.00 86 1014.1
20260906072000 21 124 0.0 1.6 0.00 0.00 0.00 87 1014.1
20260906071001 21 124 0.0 1.6 0.00 0.00 0.00 87 1014.2
20260906070500 21 124 0.0 1.6 0.00 0.00 0.00 87 1014.1
20260906070003 21 124 0.0 1.6 0.00 0.00 0.00 86 1014.2
20260906065000 21 124 0.0 1.6 0.00 0.00 0.00 86 1014.2
20260906064501 21 124 0.0 0.0 0.00 0.00 0.00 86 1014.2
20260906064000 21 124 0.0 0.0 0.00 0.00 0.00 86 1014.1
20260906063500 21 124 0.0 1.6 0.00 0.00 0.00 85 1014.0
20260906063000 21 124 0.0 1.6 0.00 0.00 0.00 84 1014.0
20260906062501 21 124 0.0 0.0 0.00 0.00 0.00 84 1014.1
20260906062001 21 124 0.0 0.0 0.00 0.00 0.00 84 1013.8
20260906061501 22 124 0.0 0.0 0.00 0.00 0.00 83 1013.7
20260906061000 21 124 0.0 1.6 0.00 0.00 0.00 83 1013.7
20260906060500 22 124 0.0 1.6 0.00 0.00 0.00 83 1013.7
20260906055003 22 124 0.0 3.2 0.00 0.00 0.00 82 1014.0
20260906054501 21 124 0.0 3.2 0.00 0.00 0.00 84 1014.1
20260906053501 21 124 1.6 1.6 0.00 0.00 0.00 85 1014.1
20260906053001 21 124 1.6 3.2 0.00 0.00 0.00 85 1014.0
20260906052001 21 124 1.6 4.8 0.00 0.00 0.00 86 1013.9
20260906051001 21 124 0.0 1.6 0.00 0.00 0.00 86 1013.8
20260906050502 21 124 0.0 0.0 0.00 0.00 0.00 86 1013.9
20260906050005 21 124 0.0 0.0 0.00 0.00 0.00 84 1013.8
20260906045501 22 124 0.0 1.6 0.00 0.00 0.00 84 1013.8
20260906044503 22 124 0.0 0.0 0.00 0.00 0.00 83 1013.9
20260906044001 22 124 0.0 0.0 0.00 0.00 0.00 83 1013.7
20260906043501 22 124 0.0 0.0 0.00 0.00 0.00 82 1013.7
20260906043002 22 124 0.0 1.6 0.00 0.00 0.00 82 1013.8
20260906042502 22 124 0.0 1.6 0.00 0.00 0.00 82 1013.7
20260906041502 22 124 0.0 4.8 0.00 0.00 0.00 81 1013.7
20260906041001 22 142 3.2 4.8 0.00 0.00 0.00 82 1013.8
20260906040501 22 143 0.0 3.2 0.00 0.00 0.00 82 1013.7
20260906040004 22 143 1.6 3.2 0.00 0.00 0.00 83 1013.6
20260906035501 22 143 0.0 3.2 0.00 0.00 0.00 81 1013.6
20260906035001 23 143 0.0 1.6 0.00 0.00 0.00 79 1013.8
20260906034501 23 143 1.6 1.6 0.00 0.00 0.00 78 1013.8
20260906034001 23 143 0.0 1.6 0.00 0.00 0.00 77 1013.7
20260906033002 23 143 1.6 3.2 0.00 0.00 0.00 78 1013.7
20260906032501 23 65 0.0 1.6 0.00 0.00 0.00 78 1013.6
20260906032001 23 65 1.6 1.6 0.00 0.00 0.00 77 1013.6
20260906031501 24 65 0.0 3.2 0.00 0.00 0.00 77 1013.6
20260906031001 25 65 0.0 6.4 0.00 0.00 0.00 75 1013.5
20260906030501 24 79 1.6 6.4 0.00 0.00 0.00 77 1013.5
20260906030004 23 78 1.6 6.4 0.00 0.00 0.00 79 1013.5
20260906025501 24 81 1.6 6.4 0.00 0.00 0.00 79 1013.4
20260906025001 23 73 1.6 6.4 0.00 0.00 0.00 82 1013.2
20260906024502 22 73 3.2 6.4 0.00 0.00 0.00 83 1013.1
20260906024001 23 143 1.6 4.8 0.00 0.00 0.00 82 1013.1
20260906023501 23 143 0.0 4.8 0.00 0.00 0.00 82 1013.1
20260906023002 23 144 0.0 1.6 0.00 0.00 0.00 81 1013.1
20260906022501 23 144 0.0 3.2 0.00 0.00 0.00 81 1013.0
20260906021501 24 144 0.0 3.2 0.00 0.00 0.00 80 1012.8
20260906021001 23 144 0.0 3.2 0.00 0.00 0.00 79 1012.7
20260906020501 24 144 3.2 3.2 0.00 0.00 0.00 78 1012.7
20260906020004 25 143 0.0 1.6 0.00 0.00 0.00 76 1012.6
20260906015501 25 143 0.0 1.6 0.00 0.00 0.00 74 1012.7
20260906015001 26 143 0.0 1.6 0.00 0.00 0.00 71 1012.5
20260906014001 26 143 0.0 1.6 0.00 0.00 0.00 71 1012.3
20260906013501 26 143 0.0 3.2 0.00 0.00 0.00 69 1012.3
20260906013001 27 143 0.0 3.2 0.00 0.00 0.00 67 1012.3
20260906012501 28 143 0.0 6.4 0.00 0.00 0.00 64 1012.1
20260906012001 28 143 1.6 9.7 0.00 0.00 0.00 63 1012.1
20260906011501 28 139 3.2 11.3 0.00 0.00 0.00 62 1012.1
20260906011001 28 132 4.8 11.3 0.00 0.00 0.00 63 1012.0
20260906010502 28 138 6.4 12.9 0.00 0.00 0.00 65 1011.9
20260906010004 28 142 6.4 12.9 0.00 0.00 0.00 66 1012.0
20260906005501 28 153 8.0 11.3 0.00 0.00 0.00 66 1011.9
20260906004501 28 170 9.7 12.9 0.00 0.00 0.00 64 1011.9
20260906004001 28 184 9.7 12.9 0.00 0.00 0.00 64 1012.0
20260906003501 28 182 8.0 11.3 0.00 0.00 0.00 63 1012.0
20260906003001 29 173 9.7 12.9 0.00 0.00 0.00 62 1012.2
20260906002501 29 163 8.0 17.7 0.00 0.00 0.00 61 1012.1
20260906002001 29 169 16.1 22.5 0.00 0.00 0.00 60 1012.2
20260906001501 29 156 12.9 22.5 0.00 0.00 0.00 60 1012.3
20260906001002 29 168 9.7 24.1 0.00 0.00 0.00 60 1012.3
20260906000501 30 164 16.1 29.0 0.00 0.00 0.00 57 1012.3
20260906000004 30 152 17.7 37.0 0.00 0.00 0.00 56 1012.4
20260905235501 31 153 20.9 51.5 0.00 0.00 0.00 54 1012.5
20260905235001 32 174 32.2 53.1 0.00 0.00 0.00 50 1012.4
20260905234501 33 171 49.9 49.9 0.00 0.00 0.00 47 1012.3
20260905234001 33 144 24.1 35.4 0.00 0.00 0.00 47 1012.1
20260905233001 34 152 17.7 40.2 0.00 0.00 0.00 45 1011.8
20260905232503 35 169 27.4 40.2 0.00 0.00 0.00 44 1011.7
20260905232001 35 130 27.4 27.4 0.00 0.00 0.00 45 1011.5
20260905231501 35 161 14.5 25.7 0.00 0.00 0.00 44 1011.5
20260905231001 35 134 16.1 22.5 0.00 0.00 0.00 44 1011.7
20260905230501 35 153 11.3 30.6 0.00 0.00 0.00 45 1011.6
20260905230004 35 126 17.7 22.5 0.00 0.00 0.00 44 1011.6
20260905225501 34 150 12.9 22.5 0.00 0.00 0.00 45 1011.5
20260905225002 35 151 9.7 25.7 0.00 0.00 0.00 43 1011.5
20260905224501 35 142 9.7 27.4 0.00 0.00 0.00 41 1011.5
20260905224001 35 127 11.3 24.1 0.00 0.00 0.00 42 1011.5
20260905223501 36 134 4.8 24.1 0.00 0.00 0.00 41 1011.5
20260905223001 36 141 11.3 20.9 0.00 0.00 0.00 41 1011.6
20260905222001 36 153 19.3 24.1 0.00 0.00 0.00 42 1011.5
20260905221501 36 157 11.3 22.5 0.00 0.00 0.00 41 1011.5
20260905221001 36 121 17.7 22.5 0.00 0.00 0.00 40 1011.4
20260905220501 36 69 9.7 20.9 0.00 0.00 0.00 41 1011.4
20260905220004 36 94 19.3 22.5 0.00 0.00 0.00 41 1011.4
20260905215501 36 119 16.1 29.0 0.00 0.00 0.00 43 1011.5
20260905214501 37 55 4.8 30.6 0.00 0.00 0.00 42 1011.8
20260905214001 37 127 11.3 30.6 0.00 0.00 0.00 40 1011.9
20260905213501 37 140 11.3 30.6 0.00 0.00 0.00 44 1012.0
20260905212501 37 162 16.1 27.4 0.00 0.00 0.00 41 1012.0
20260905212001 37 134 8.0 20.9 0.00 0.00 0.00 40 1012.0
20260905211001 37 126 16.1 27.4 0.00 0.00 0.00 39 1012.0
20260905210502 37 89 12.9 30.6 0.00 0.00 0.00 39 1012.1
20260905210004 37 121 14.5 25.7 0.00 0.00 0.00 39 1012.1
20260905205501 37 145 17.7 27.4 0.00 0.00 0.00 41 1012.2
20260905205001 37 133 17.7 25.7 0.00 0.00 0.00 40 1012.2
20260905204501 37 131 14.5 24.1 0.00 0.00 0.00 43 1012.2
20260905204002 37 119 16.1 24.1 0.00 0.00 0.00 40 1012.2
20260905203501 36 104 6.4 22.5 0.00 0.00 0.00 40 1012.3
20260905203001 37 142 16.1 24.1 0.00 0.00 0.00 41 1012.4
20260905202501 37 78 17.7 27.4 0.00 0.00 0.00 40 1012.3
20260905202001 36 114 20.9 33.8 0.00 0.00 0.00 42 1012.5